• In Uzbekistan
  • List of Countries
  • For 7 days
  • Water Temperature
  • Satellite Maps
  • Weather Map
  • Weather Widgets
  • user-avatar
    Login

    Hourly Weather Grzebien

    Today, 24 March, Sunday

    Time Temperature Precipitation Wind Pressure Humidity
    00:00 +10°C° 0 mm 3 mps 747 mmHg 83%
    01:00 +8°C° 0 mm 4 mps 747 mmHg 90%
    02:00 +7°C° 0 mm 4 mps 748 mmHg 90%
    03:00 +6°C° 0 mm 4 mps 748 mmHg 90%
    04:00 +5°C° 0 mm 3 mps 748 mmHg 91%
    05:00 +5°C° 0 mm 3 mps 748 mmHg 89%
    06:00 +5°C° 0 mm 3 mps 748 mmHg 88%
    07:00 +4°C° 0 mm 3 mps 748 mmHg 86%
    08:00 +7°C° 0 mm 3 mps 748 mmHg 75%
    09:00 +8°C° 0 mm 2 mps 748 mmHg 64%
    10:00 +9°C° 0 mm 2 mps 748 mmHg 53%
    11:00 +9°C° 0 mm 2 mps 747 mmHg 47%
    12:00 +10°C° 0 mm 2 mps 747 mmHg 42%
    13:00 +12°C° 0 mm 2 mps 746 mmHg 36%
    14:00 +12°C° 0 mm 2 mps 746 mmHg 36%
    15:00 +12°C° 0 mm 2 mps 745 mmHg 35%
    16:00 +12°C° 0 mm 2 mps 744 mmHg 34%
    17:00 +12°C° 0 mm 2 mps 744 mmHg 36%
    18:00 +10°C° 0 mm 2 mps 744 mmHg 38%
    19:00 +9°C° 0 mm 2 mps 744 mmHg 40%
    20:00 +10°C° 0 mm 1 mps 743 mmHg 42%
    21:00 +10°C° 0 mm 1 mps 743 mmHg 44%
    22:00 +9°C° 0 mm 1 mps 743 mmHg 46%
    23:00 +9°C° 0 mm 1 mps 742 mmHg 47%

    Tomorrow, 25 March, Monday

    Time Temperature Precipitation Wind Pressure Humidity
    00:00 +8°C° 0 mm 1 mps 742 mmHg 49%
    01:00 +8°C° 0 mm 1 mps 742 mmHg 51%
    02:00 +7°C° 0 mm 1 mps 741 mmHg 54%
    03:00 +7°C° 0 mm 1 mps 741 mmHg 56%
    04:00 +5°C° 0 mm 2 mps 740 mmHg 59%
    05:00 +5°C° 0 mm 2 mps 740 mmHg 61%
    06:00 +5°C° 0 mm 2 mps 740 mmHg 63%
    07:00 +5°C° 0 mm 3 mps 739 mmHg 65%
    08:00 +7°C° 0 mm 3 mps 739 mmHg 59%
    09:00 +7°C° 0 mm 4 mps 739 mmHg 53%
    10:00 +8°C° 0 mm 5 mps 739 mmHg 47%
    11:00 +8°C° 0.1 mm 5 mps 738 mmHg 45%
    12:00 +8°C° 0.1 mm 5 mps 738 mmHg 44%
    13:00 +8°C° 0.1 mm 6 mps 737 mmHg 42%
    14:00 +8°C° 0.2 mm 6 mps 738 mmHg 47%
    15:00 +7°C° 0.2 mm 6 mps 738 mmHg 51%
    16:00 +6°C° 0.2 mm 7 mps 738 mmHg 56%
    17:00 +5°C° 0 mm 6 mps 739 mmHg 59%
    18:00 +4°C° 0 mm 6 mps 739 mmHg 61%
    19:00 +3°C° 0 mm 6 mps 740 mmHg 64%
    20:00 +3°C° 0 mm 5 mps 741 mmHg 67%
    21:00 +2°C° 0 mm 5 mps 742 mmHg 70%
    22:00 +1°C° 0 mm 5 mps 742 mmHg 73%
    23:00 +1°C° 0 mm 5 mps 743 mmHg 75%

    Day after tomorrow, 26 March, Tuesday

    Time Temperature Precipitation Wind Pressure Humidity
    00:00 +1°C° 0 mm 4 mps 743 mmHg 77%
    01:00 0°C° 0 mm 4 mps 744 mmHg 79%
    02:00 0°C° 0 mm 4 mps 744 mmHg 80%
    03:00 0°C° 0 mm 4 mps 745 mmHg 82%
    04:00 0°C° 0 mm 4 mps 745 mmHg 83%
    05:00 0°C° 0 mm 4 mps 746 mmHg 84%
    06:00 0°C° 0 mm 4 mps 746 mmHg 85%
    07:00 0°C° 0 mm 4 mps 747 mmHg 86%
    08:00 +1°C° 0 mm 4 mps 747 mmHg 81%
    09:00 +3°C° 0 mm 4 mps 748 mmHg 76%
    10:00 +4°C° 0 mm 4 mps 748 mmHg 72%
    11:00 +5°C° 0 mm 5 mps 748 mmHg 64%
    12:00 +6°C° 0 mm 5 mps 747 mmHg 57%
    13:00 +7°C° 0 mm 6 mps 747 mmHg 49%
    14:00 +7°C° 0 mm 6 mps 747 mmHg 49%
    15:00 +6°C° 0 mm 7 mps 747 mmHg 49%
    16:00 +8°C° 0 mm 7 mps 747 mmHg 49%
    17:00 +7°C° 0 mm 6 mps 747 mmHg 52%
    18:00 +6°C° 0 mm 5 mps 747 mmHg 54%
    19:00 +5°C° 0 mm 5 mps 747 mmHg 56%
    20:00 +5°C° 0 mm 5 mps 748 mmHg 60%
    21:00 +4°C° 0 mm 4 mps 748 mmHg 63%
    22:00 +4°C° 0 mm 4 mps 748 mmHg 66%
    23:00 +3°C° 0 mm 4 mps 749 mmHg 71%

    27 March, Wednesday

    Time Temperature Precipitation Wind Pressure Humidity
    00:00 +3°C° 0 mm 3 mps 749 mmHg 76%
    01:00 +2°C° 0 mm 3 mps 749 mmHg 81%
    02:00 +2°C° 0 mm 2 mps 749 mmHg 85%
    03:00 +2°C° 0 mm 2 mps 749 mmHg 88%
    04:00 +1°C° 0 mm 2 mps 749 mmHg 92%
    05:00 +2°C° 0 mm 2 mps 749 mmHg 90%
    06:00 +2°C° 0 mm 2 mps 750 mmHg 88%
    07:00 +2°C° 0 mm 2 mps 750 mmHg 86%
    08:00 +4°C° 0 mm 2 mps 750 mmHg 77%
    09:00 +4°C° 0 mm 3 mps 750 mmHg 68%
    10:00 +7°C° 0 mm 3 mps 750 mmHg 59%
    11:00 +8°C° 0 mm 3 mps 750 mmHg 54%
    12:00 +8°C° 0 mm 4 mps 750 mmHg 49%
    13:00 +10°C° 0 mm 4 mps 750 mmHg 45%
    14:00 +10°C° 0 mm 4 mps 750 mmHg 47%
    15:00 +10°C° 0 mm 4 mps 750 mmHg 50%
    16:00 +10°C° 0 mm 4 mps 749 mmHg 52%
    17:00 +8°C° 0 mm 4 mps 750 mmHg 57%
    18:00 +8°C° 0 mm 3 mps 750 mmHg 63%
    19:00 +7°C° 0 mm 2 mps 750 mmHg 68%
    20:00 +7°C° 0 mm 3 mps 750 mmHg 69%
    21:00 +7°C° 0 mm 3 mps 750 mmHg 71%
    22:00 +7°C° 0 mm 3 mps 751 mmHg 72%
    23:00 +7°C° 0.1 mm 3 mps 751 mmHg 75%

    28 March, Thursday

    Time Temperature Precipitation Wind Pressure Humidity
    00:00 +5°C° 0.1 mm 3 mps 751 mmHg 79%
    01:00 +5°C° 0.1 mm 3 mps 751 mmHg 83%
    02:00 +5°C° 0.1 mm 3 mps 751 mmHg 85%
    03:00 +5°C° 0.1 mm 3 mps 751 mmHg 87%
    04:00 +5°C° 0.1 mm 3 mps 751 mmHg 89%
    05:00 +6°C° 0.1 mm 2 mps 751 mmHg 90%
    06:00 +6°C° 0.1 mm 2 mps 751 mmHg 90%
    07:00 +6°C° 0.1 mm 2 mps 751 mmHg 91%
    08:00 +8°C° 0.1 mm 1 mps 752 mmHg 84%
    09:00 +9°C° 0.1 mm 1 mps 752 mmHg 78%
    10:00 +10°C° 0.1 mm 1 mps 752 mmHg 71%
    11:00 +11°C° 0.1 mm 1 mps 752 mmHg 67%
    12:00 +11°C° 0.1 mm 1 mps 752 mmHg 64%
    13:00 +10°C° 0.1 mm 2 mps 751 mmHg 60%
    14:00 +10°C° 0.1 mm 2 mps 751 mmHg 58%
    15:00 +10°C° 0.1 mm 2 mps 751 mmHg 57%
    16:00 +12°C° 0.1 mm 2 mps 751 mmHg 56%
    17:00 +10°C° 0 mm 2 mps 751 mmHg 60%
    18:00 +9°C° 0 mm 2 mps 751 mmHg 64%
    19:00 +9°C° 0 mm 1 mps 752 mmHg 68%
    20:00 +8°C° 0 mm 1 mps 752 mmHg 71%
    21:00 +7°C° 0 mm 1 mps 752 mmHg 74%
    22:00 +7°C° 0 mm 1 mps 752 mmHg 76%
    23:00 +6°C° 0 mm 1 mps 752 mmHg 78%

    29 March, Friday

    Time Temperature Precipitation Wind Pressure Humidity
    00:00 +5°C° 0 mm 0 mps 752 mmHg 80%
    01:00 +5°C° 0 mm 0 mps 752 mmHg 81%
    02:00 +4°C° 0 mm 0 mps 752 mmHg 82%
    03:00 +4°C° 0 mm 0 mps 752 mmHg 83%
    04:00 +4°C° 0 mm 0 mps 752 mmHg 85%
    05:00 +4°C° 0 mm 0 mps 752 mmHg 82%
    06:00 +5°C° 0 mm 0 mps 753 mmHg 79%
    07:00 +6°C° 0 mm 0 mps 753 mmHg 76%
    08:00 +8°C° 0 mm 1 mps 753 mmHg 69%
    09:00 +10°C° 0 mm 1 mps 753 mmHg 62%
    10:00 +11°C° 0 mm 1 mps 753 mmHg 55%
    11:00 +12°C° 0 mm 1 mps 753 mmHg 52%
    12:00 +13°C° 0 mm 1 mps 752 mmHg 48%
    13:00 +14°C° 0 mm 1 mps 752 mmHg 44%
    14:00 +14°C° 0 mm 1 mps 752 mmHg 44%
    15:00 +14°C° 0 mm 1 mps 751 mmHg 43%
    16:00 +14°C° 0 mm 1 mps 751 mmHg 42%
    17:00 +13°C° 0 mm 1 mps 751 mmHg 46%
    18:00 +12°C° 0 mm 1 mps 751 mmHg 50%
    19:00 +11°C° 0 mm 1 mps 751 mmHg 54%
    20:00 +10°C° 0 mm 1 mps 751 mmHg 57%
    21:00 +9°C° 0 mm 1 mps 751 mmHg 60%
    22:00 +9°C° 0 mm 1 mps 751 mmHg 63%
    23:00 +8°C° 0 mm 1 mps 751 mmHg 66%
    Show more